Temp
19 20 21 19 19 19 19 19 20 20 19 19 19 19 19 19 19 19 19 19 19 19 18 18 18 19 18 18 18 18 19 19 19 20 19 19 19 19 19 18 18 18 19
20 19 20 19 19 19 19 19 20 19 19 19 19 19 18 18 19 19 19 19 19 18 18 18 18 18 18 18 19 19 18 19 19 19 19 19 19 19 19 19 19 19 18
20 19 19 20 19 19 19 19 19 19 19 18 18 18 18 18 18 18 18 18 18 18 18 18 18 18 18 18 18 18 18 18 19 19 19 19 19 19 19 19 19 18 18
20 19 19 19 19 18 18 18 19 18 18 18 18 18 17 17 17 18 18 18 18 18 18 18 18 18 18 18 18 18 18 18 18 19 19 19 19 19 19 19 19 18 17
20 19 19 19 19 18 18 18 18 18 18 18 18 18 17 17 16 16 18 18 17 17 17 17 17 17 17 17 18 18 18 18 19 19 19 19 19 18 18 18 18 18 18
20 19 18 18 17 18 18 18 18 18 18 18 18 18 17 17 17 17 17 17 17 17 17 17 17 17 17 17 17 17 18 18 19 19 19 19 19 18 18 18 18 18 18
18 18 18 17 17 18 18 18 18 18 18 18 18 18 17 16 16 16 16 16 16 16 16 16 16 17 17 17 17 17 18 18 19 18 19 19 19 19 18 18 17 17 17
18 18 17 16 17 17 18 18 18 18 18 18 18 17 17 17 15 15 16 16 15 15 15 16 16 16 17 17 17 17 18 18 18 17 18 18 18 18 17 16 16 16 16
18 17 16 16 17 17 18 18 18 17 17 17 17 17 16 16 15 15 15 16 16 16 16 16 16 16 16 17 17 17 18 17 17 17 17 18 18 16 16 16 16 16 16
18 17 17 17 18 18 17 17 17 16 16 16 16 16 16 15 15 15 16 16 16 16 16 16 16 16 16 16 17 17 17 17 17 16 17 17 17 16 16 16 16 16 16
17 17 17 17 17 17 17 16 16 16 15 15 16 16 15 15 15 15 15 15 15 15 16 16 16 16 16 16 17 17 17 16 16 16 16 16 16 16 15 15 15 15 15
17 17 17 16 16 16 16 16 16 15 15 15 15 15 15 15 15 15 15 15 15 15 15 16 16 16 16 16 16 16 16 16 16 15 15 16 15 15 15 15 15 15 15
17 16 17 17 16 16 16 16 16 15 15 15 15 15 15 15 15 15 15 15 15 15 15 15 15 15 16 15 16 15 15 15 15 15 14 15 14 15 14 14 14 14 14
16 16 16 16 16 16 16 16 16 15 15 14 14 14 14 14 14 14 14 14 14 14 15 15 15 15 15 15 15 14 14 14 14 13 13 13 13 13 14 15 14 14 14
16 16 16 16 16 16 16 16 15 15 14 14 14 14 14 14 14 14 14 14 14 14 14 14 14 14 14 14 14 14 13 13 13 13 12 12 12 12 12 13 13 13 14
15 15 15 15 15 15 15 15 15 15 14 14 14 13 13 13 13 13 13 13 14 14 14 14 14 14 14 14 13 13 13 13 13 12 12 12 12 12 12 11 12 12 13
15 15 15 15 15 15 15 15 14 14 14 13 13 13 13 13 13 13 13 13 13 13 13 14 14 13 13 13 12 12 12 13 12 12 12 11 12 12 12 12 11 11 12
15 15 15 15 14 14 14 14 14 14 13 13 13 13 13 13 12 12 12 13 13 13 13 13 13 13 12 12 12 12 12 12 13 12 12 12 12 12 12 12 12 12 11
15 14 14 14 14 14 14 14 14 13 13 13 12 12 12 12 12 12 12 12 12 12 13 12 13 12 12 12 12 12 12 12 12 12 12 12 12 12 12 12 12 11 11
15 15 14 14 14 14 13 13 13 13 13 12 12 12 12 12 12 12 12 12 12 12 12 12 12 12 12 12 12 12 12 12 12 12 12 12 12 11 11 11 11 11 10
15 15 14 14 14 14 13 13 13 13 12 12 12 12 12 12 12 11 11 11 12 11 11 11 12 12 12 12 12 12 13 12 12 12 12 12 11 11 11 11 10 10 10
15 15 14 14 14 14 14 14 13 13 12 12 12 12 12 11 11 11 11 11 11 11 11 11 11 11 11 11 11 9 8 11 12 12 12 12 11 11 11 11 10 10 10
15 14 14 14 14 14 14 13 13 13 12 12 11 11 11 11 11 11 11 11 11 11 11 10 10 10 10 11 10 10 7 8 7 12 12 11 11 11 11 11 11 10 10
15 15 14 14 14 14 14 14 13 13 12 12 12 11 11 11 11 11 11 11 11 11 10 10 10 10 10 10 10 10 10 10 7 6 11 12 11 11 11 11 11 11 10
15 14 14 14 14 13 13 13 13 12 12 12 12 11 11 11 11 10 11 10 10 10 10 10 10 10 9 9 9 9 9 9 9 7 5 8 11 11 11 11 11 10 10
14 14 14 14 13 13 13 13 12 12 12 12 12 11 11 11 11 11 10 10 10 10 10 9 9 9 9 9 9 8 8 8 8 7 4 5 6 9 10 11 11 11 11
Height
814 815 817 820 822 824 825 826 828 829 830 830 830 831 831 831 831 831 831 831 831 831 831 831 830 830 829 829 829 829 828 828 828 827 827 828 828 828 827 827 826 826 825
810 814 817 820 822 824 825 827 828 829 830 831 831 831 832 832 832 832 832 832 832 831 831 831 831 831 830 830 829 829 829 829 829 828 828 828 828 828 828 827 827 826 826
810 814 817 819 821 823 825 827 828 829 830 831 832 832 832 832 832 832 832 832 832 832 831 831 831 831 830 830 829 829 828 828 828 828 828 828 827 827 827 827 826 826 826
810 814 818 819 821 823 825 826 827 829 830 831 831 831 832 832 832 832 832 832 832 832 831 831 831 831 830 830 829 829 828 828 828 828 827 828 827 827 827 826 826 826 826
810 815 818 820 821 823 825 826 827 829 830 830 831 831 831 832 832 832 832 832 832 832 832 831 831 831 830 829 829 829 828 828 827 827 827 827 827 827 826 826 826 826 824
810 815 818 820 822 823 824 825 827 828 829 830 831 831 831 831 831 831 831 831 832 832 831 831 831 831 830 830 829 829 828 828 827 826 826 826 826 826 826 825 824 824 823
811 815 819 821 822 823 824 825 826 828 829 829 830 830 830 830 830 831 830 831 831 831 831 830 830 829 829 829 829 828 828 828 827 826 824 825 825 825 824 823 823 823 822
811 816 819 821 822 824 825 826 826 828 828 829 830 830 830 830 830 830 830 830 830 830 830 830 830 829 829 829 828 828 828 827 827 826 825 824 824 825 824 824 824 823 822
812 816 818 820 822 823 825 826 827 827 828 829 830 830 830 830 830 830 830 829 829 829 829 829 829 830 829 829 828 828 828 827 826 826 826 825 826 825 825 824 824 823 822
812 817 818 820 822 824 825 827 828 828 829 829 830 831 831 830 830 831 830 829 829 829 829 829 829 829 829 829 828 828 828 827 826 826 826 826 826 826 826 825 824 823 822
814 817 819 820 822 824 825 827 829 829 829 830 830 831 831 830 830 831 831 830 830 830 830 830 830 830 829 829 828 828 828 827 827 827 827 827 827 827 826 825 824 824 822
812 816 819 820 821 824 825 827 829 829 829 829 830 830 831 831 831 831 831 831 830 830 830 830 829 829 830 829 829 828 827 827 827 827 827 827 827 827 825 824 824 824 823
811 815 818 819 821 823 825 827 828 829 829 829 829 830 830 831 832 831 831 831 831 830 830 830 829 830 829 829 828 827 827 826 827 827 827 828 828 827 827 826 825 825 824
811 813 816 819 820 822 825 827 828 829 829 830 830 829 830 831 831 831 831 831 831 830 830 829 829 830 829 829 829 828 827 827 827 827 827 828 828 828 828 827 827 826 825
810 812 815 818 818 820 824 826 827 828 829 830 830 829 830 831 831 831 831 831 831 831 830 830 830 829 830 829 829 828 828 827 828 828 828 829 829 829 829 829 828 827 827
810 812 813 817 817 819 822 825 826 827 828 829 830 830 830 831 832 831 831 832 831 831 831 831 830 829 830 830 830 829 829 829 830 829 829 829 829 829 829 829 828 828 828
809 811 813 817 817 818 821 824 825 826 828 829 830 830 829 831 832 832 832 833 831 831 831 831 831 830 830 830 829 830 831 831 831 831 830 829 829 829 829 828 828 828 828
807 810 813 816 817 818 821 823 824 826 828 828 830 830 830 831 832 832 833 833 832 832 831 831 831 831 830 829 829 829 830 831 831 831 830 830 829 829 828 828 827 826 826
805 809 812 815 817 818 821 823 825 826 828 829 829 830 830 832 833 833 834 833 832 832 832 832 831 831 830 830 829 829 829 830 831 831 830 830 829 828 827 827 826 825 824
804 808 810 814 816 818 821 823 824 826 828 829 830 830 830 832 833 833 834 834 832 832 832 832 831 831 830 830 829 829 828 829 830 830 829 828 827 827 826 825 824 823 823
802 806 808 812 815 816 819 821 825 824 827 827 830 830 830 832 833 833 833 834 833 832 832 831 831 830 830 829 828 827 825 826 827 827 827 827 826 826 825 824 823 822 821
799 804 807 811 813 815 817 820 823 825 825 826 829 830 830 832 833 833 833 833 833 832 832 831 831 830 830 830 829 829 829 826 825 825 825 825 825 824 824 823 822 821 819
796 800 805 809 811 814 816 819 821 824 824 825 828 829 829 831 832 833 833 832 832 832 832 832 831 831 830 830 830 831 832 832 827 821 822 823 823 823 822 821 820 819 817
794 798 804 807 810 811 815 817 820 822 822 824 826 827 829 831 831 832 831 831 831 831 831 831 831 831 829 829 830 830 830 830 830 828 822 821 821 820 819 818 816 815 814
792 795 801 805 808 810 814 816 819 821 822 824 825 826 829 829 829 830 830 830 830 829 830 830 830 830 829 829 830 830 829 828 827 828 826 820 818 818 816 814 813 812 810
791 794 799 803 806 809 812 815 817 819 821 822 824 826 828 827 828 829 828 828 828 828 828 829 829 829 828 828 829 829 828 828 826 826 825 820 816 811 810 809 808 806 805
Wind_Speed
23 23 20 17 15 14 13 13 11 9 9 9 8 7 7 7 7 6 6 6 7 8 9 8 7 5 5 5 5 6 6 7 7 6 5 5 5 4 2 2 4 5 8
27 23 20 18 16 15 14 13 12 10 9 9 9 9 8 7 8 5 5 6 6 6 6 5 5 5 6 5 5 5 4 4 5 5 3 2 2 3 1 1 2 4 5
26 23 20 19 18 15 13 12 12 10 10 9 8 7 7 6 7 7 5 5 5 4 4 4 4 4 4 4 5 5 4 2 3 2 2 4 6 0 4 3 3 4 5
26 22 20 19 17 16 15 14 12 10 8 7 6 7 7 7 7 7 6 6 5 5 5 4 4 4 4 4 4 4 5 3 3 3 3 5 2 2 3 5 5 4 6
25 21 20 20 19 17 15 13 11 9 7 6 5 5 5 5 6 5 3 3 3 3 3 4 4 4 3 3 3 3 4 4 4 3 4 5 1 3 4 5 6 6 6
25 23 21 19 17 16 14 13 10 8 6 5 3 3 3 3 4 4 3 2 2 2 2 2 3 3 3 3 3 4 4 4 4 5 3 0 3 3 5 6 6 7 5
24 22 19 17 16 15 13 11 9 6 5 4 3 3 4 4 5 4 4 4 4 3 3 3 3 3 3 3 4 5 5 5 5 7 10 4 3 3 6 8 7 6 6
25 21 18 16 15 14 11 9 7 6 4 5 5 5 6 6 6 5 4 4 5 5 4 4 4 4 4 4 4 4 4 4 5 9 5 4 3 4 7 6 6 7 7
22 21 19 18 15 12 9 7 8 8 8 8 7 8 9 10 8 7 6 5 5 5 5 6 6 5 5 6 7 6 5 7 10 5 7 7 4 8 8 7 8 8 8
19 18 17 14 12 11 11 10 10 10 11 12 12 11 8 7 6 9 7 7 7 8 8 8 7 6 6 6 9 8 7 10 9 7 7 6 3 8 7 7 8 7 8
19 16 16 15 13 11 12 13 11 11 11 10 11 8 6 6 5 9 11 11 13 11 12 12 10 9 8 7 6 8 8 8 7 8 9 8 7 6 6 7 5 5 6
23 20 17 17 13 11 12 12 11 9 8 7 8 8 6 6 7 5 8 9 9 11 9 10 7 8 7 6 7 6 3 3 5 6 8 9 8 4 6 8 10 10 9
22 20 18 17 15 13 12 12 11 9 6 5 7 8 7 6 7 10 8 7 6 6 7 6 9 7 6 6 3 6 5 4 5 5 5 7 12 12 11 12 13 11 10
24 22 20 18 17 14 12 12 10 8 6 5 7 7 6 7 7 6 7 6 6 7 5 4 4 5 5 4 4 8 7 6 6 6 5 2 5 7 9 6 7 9 9
24 22 21 19 18 17 15 12 12 11 8 5 5 8 6 7 7 7 6 4 5 5 7 7 7 5 3 4 3 4 6 6 6 5 4 3 5 6 8 8 8 6 3
25 22 21 19 19 16 16 13 11 9 6 4 6 7 7 6 6 4 3 3 4 4 5 5 5 5 3 3 3 1 5 5 2 3 2 5 5 5 7 9 9 8 7
25 23 21 19 18 16 15 13 11 10 7 5 6 6 6 5 5 4 3 3 5 4 3 4 3 3 3 7 4 6 5 2 0 1 2 2 3 4 4 4 7 8 8
26 24 22 19 18 16 15 12 11 9 7 7 4 4 5 5 4 3 2 4 5 4 4 4 3 5 5 7 5 2 3 1 1 2 1 0 3 4 4 5 5 3 3
28 25 23 20 19 17 15 12 11 9 7 6 4 4 4 4 4 3 1 3 4 4 4 3 4 5 5 4 5 5 3 1 4 5 5 5 5 5 5 5 5 3 3
27 25 23 21 19 17 15 12 10 9 7 5 3 3 3 4 4 3 2 3 3 4 5 4 3 3 4 5 6 7 7 7 7 8 8 8 7 7 8 7 7 6 5
28 26 24 23 19 18 17 14 11 10 8 5 3 3 3 3 3 3 2 2 3 4 5 6 4 3 3 7 6 4 7 12 10 11 11 12 11 10 10 10 9 9 9
32 27 24 22 20 17 15 12 8 12 7 7 3 3 3 2 2 1 1 2 3 3 3 4 5 3 3 6 5 3 3 3 10 15 15 13 12 12 13 13 12 11 12
32 29 25 22 19 17 15 14 13 10 8 7 5 4 3 3 1 2 1 1 2 2 3 4 4 4 4 2 4 2 2 2 5 4 13 15 14 15 14 13 14 14 15
31 27 24 22 21 18 16 14 14 9 8 6 6 4 2 2 2 3 3 2 2 3 3 3 4 4 3 3 4 2 4 4 1 4 3 7 13 17 16 16 17 18 17
29 27 25 22 20 18 15 13 12 9 7 8 6 3 3 3 3 4 4 4 4 4 5 5 6 6 5 5 5 5 4 7 9 6 4 6 10 18 17 21 23 22 21
28 27 25 24 21 18 16 14 11 10 9 8 5 4 4 4 4 5 4 5 6 6 7 8 9 8 8 9 10 11 11 7 4 4 3 6 10 22 18 19 18 22 25
Wind_Direction
154 154 153 148 144 137 132 127 116 106 109 108 103 94 83 76 73 71 70 71 62 70 70 60 54 54 55 42 30 29 30 36 41 49 62 64 55 38 85 62 40 13 15
153 152 149 145 145 145 141 137 137 131 127 121 107 95 92 79 69 70 67 70 57 54 57 55 50 37 40 36 27 16 3 16 27 32 43 54 46 32 13 336 330 354 12
148 148 147 148 146 144 139 138 135 133 124 116 105 90 78 75 65 61 63 60 56 51 47 41 36 32 28 25 21 17 7 341 6 26 18 346 298 221 323 326 321 330 338
146 147 150 151 145 137 136 137 132 129 125 117 103 93 82 75 82 68 68 65 62 54 49 50 48 47 41 33 22 11 13 4 346 334 318 5 349 241 314 339 328 337 321
142 148 150 146 140 145 140 137 134 130 126 117 106 97 86 81 77 71 67 58 46 42 42 41 38 30 25 17 6 350 351 357 358 11 2 2 201 285 318 338 329 319 298
142 149 147 145 144 141 143 138 136 137 135 122 113 95 79 62 68 61 61 49 33 23 10 7 351 349 344 341 341 324 334 340 343 333 328 283 337 295 323 333 333 330 318
144 148 153 149 144 143 143 143 143 140 131 120 99 84 77 66 67 66 65 60 51 43 35 16 357 0 338 325 325 324 319 315 309 330 333 251 309 8 28 356 4 10 13
148 153 146 144 143 145 147 146 141 134 114 98 88 79 71 65 68 64 65 68 64 57 44 31 23 24 26 20 12 1 356 345 354 22 61 96 16 358 23 26 31 20 14
151 155 153 148 149 150 148 139 122 107 97 87 81 80 81 69 68 35 45 51 52 45 39 36 36 37 41 38 29 24 26 20 1 98 82 72 32 51 52 43 29 8 354
146 154 151 147 148 145 132 117 106 99 94 88 85 78 82 83 69 35 39 52 50 48 40 35 32 34 39 44 43 42 30 24 80 73 65 55 2 32 42 25 12 21 15
145 148 148 145 137 132 125 114 106 97 90 88 92 86 76 61 61 56 56 63 63 57 52 49 50 39 28 22 58 25 42 42 62 54 44 33 32 38 21 4 22 40 45
150 153 153 146 146 132 123 116 105 98 88 88 105 96 81 78 80 60 65 56 58 53 54 36 58 35 9 33 48 53 25 23 31 38 42 50 35 43 63 67 71 64 59
160 159 161 160 151 145 132 122 124 120 112 83 102 108 92 83 83 77 73 64 61 64 65 55 62 52 38 32 25 58 76 63 40 21 56 101 54 63 66 64 61 62 63
164 163 162 157 152 148 139 139 137 135 122 90 86 113 99 93 88 86 76 60 64 56 62 49 42 59 51 61 67 81 74 61 32 11 87 82 79 38 44 49 42 50 52
164 164 161 160 151 146 142 134 134 127 120 110 95 97 99 98 94 85 85 65 66 67 55 48 58 57 62 79 93 90 75 64 55 47 47 55 67 62 53 45 43 39 34
167 164 160 163 152 151 151 147 142 135 128 106 97 106 96 104 90 104 86 61 61 75 57 55 57 35 65 9 341 24 97 77 55 47 26 64 60 47 57 54 51 49 45
170 163 161 160 156 155 154 157 147 135 136 99 92 113 104 107 102 80 66 54 61 64 73 63 73 70 8 351 46 84 76 64 249 355 107 109 50 28 24 26 43 46 45
170 168 163 162 157 151 151 150 143 142 142 123 121 106 113 114 112 109 60 65 61 53 69 59 66 56 34 31 59 84 160 335 247 161 154 165 316 314 337 343 343 344 33
173 168 166 163 158 153 152 153 145 146 143 143 148 125 116 131 129 124 83 74 66 53 53 48 61 44 49 39 10 352 216 277 212 240 254 259 264 278 292 311 315 321 319
172 170 166 163 161 157 155 154 145 152 147 153 161 142 132 122 155 135 102 82 68 51 45 36 40 52 25 342 310 290 275 239 239 248 258 264 272 278 282 292 292 295 298
171 171 168 166 167 161 160 154 165 154 160 151 183 158 143 135 155 160 123 64 55 52 35 23 34 33 26 357 333 298 280 247 247 251 255 262 265 271 281 287 286 284 284
171 173 171 171 170 167 162 169 180 167 165 176 181 179 147 175 162 153 150 67 45 44 25 18 25 33 26 12 5 336 349 343 245 253 248 257 259 265 280 289 285 284 285
172 174 175 176 171 168 168 173 162 172 151 171 191 188 168 219 209 228 222 320 357 359 359 3 8 13 20 11 10 356 8 282 319 304 242 250 254 265 279 285 287 288 290
176 175 178 178 176 174 183 182 183 177 164 172 189 172 166 249 259 259 260 272 286 309 313 320 326 331 332 332 329 258 270 270 220 330 309 278 266 267 274 282 285 283 287
180 176 180 181 180 182 183 182 178 172 165 163 166 169 220 238 272 280 275 273 275 287 294 295 292 292 297 296 289 295 290 275 254 222 276 295 290 297 286 283 276 276 276
183 180 182 183 184 187 186 185 185 180 174 168 166 199 221 231 254 278 301 299 293 286 286 289 290 292 297 290 284 276 270 270 280 251 261 270 274 299 294 289 277 276 279